K5HAS Weather Reports


Display with metric or nautical units.
time (UTC)temp
F
wind
direction
speed
MPH
gust
MPH
rain 1hr
in
rain 24hr
in
rain mn
in
humidity
%
barometer
mb
20260505011401 75 163 10.0 17.0 0.00 0.00 0.00 78 1008.7
20260505010851 75 90 11.0 17.0 0.00 0.00 0.00 78 1008.7
20260505010345 75 90 11.0 17.0 0.00 0.00 0.00 77 1008.7
20260505005842 75 139 11.0 20.0 0.00 0.00 0.00 77 1008.8
20260505005609 75 90 12.0 20.0 0.00 0.00 0.00 77 1008.8
20260505004841 75 90 13.0 21.0 0.00 0.00 0.00 77 1008.8
20260505004558 76 157 12.0 21.0 0.00 0.00 0.00 77 1008.7
20260505003841 76 164 11.0 17.0 0.00 0.00 0.00 77 1008.7
20260505003342 76 149 11.0 17.0 0.00 0.00 0.00 76 1008.7
20260505002842 76 162 11.0 23.0 0.00 0.00 0.00 76 1008.8
20260505002341 76 139 11.0 23.0 0.00 0.00 0.00 76 1008.8
20260505000837 76 90 11.0 20.0 0.00 0.00 0.00 75 1009.2
20260505000331 76 150 10.0 17.0 0.00 0.00 0.00 75 1009.2
20260504235821 77 153 10.0 17.0 0.00 0.00 0.00 75 1009.3
20260504235310 77 124 11.0 18.0 0.00 0.00 0.00 75 1009.3
20260504234808 77 120 11.0 18.0 0.00 0.00 0.00 75 1009.3
20260504234255 77 128 10.0 18.0 0.00 0.00 0.00 74 1009.5
20260504233749 77 145 10.0 18.0 0.00 0.00 0.00 74 1009.5
20260504233239 77 156 10.0 22.0 0.00 0.00 0.00 74 1009.5
20260504232731 78 159 11.0 22.0 0.00 0.00 0.00 74 1009.3
20260504232219 78 172 12.0 23.0 0.00 0.00 0.00 73 1009.3
20260504231929 78 90 13.0 23.0 0.00 0.00 0.00 73 1009.3
20260504231202 78 90 14.0 22.0 0.00 0.00 0.00 73 1009.5
20260504230431 78 161 13.0 24.0 0.00 0.00 0.00 73 1009.5
20260504225700 79 175 12.0 24.0 0.00 0.00 0.00 73 1009.6
20260504225420 79 90 13.0 23.0 0.00 0.00 0.00 73 1009.6
20260504224659 79 164 14.0 23.0 0.00 0.00 0.00 72 1009.6
20260504224159 79 197 15.0 22.0 0.00 0.00 0.00 72 1009.4
20260504223659 79 159 13.0 22.0 0.00 0.00 0.00 72 1009.4
20260504223200 79 153 11.0 17.0 0.00 0.00 0.00 72 1009.4
20260504222659 80 90 12.0 23.0 0.00 0.00 0.00 72 1009.5
20260504222159 80 136 13.0 23.0 0.00 0.00 0.00 71 1009.5
20260504221700 80 145 12.0 20.0 0.00 0.00 0.00 72 1009.5
20260504221154 81 90 12.0 23.0 0.00 0.00 0.00 72 1009.7
20260504220906 81 155 13.0 23.0 0.00 0.00 0.00 72 1009.7
20260504220128 81 145 14.0 23.0 0.00 0.00 0.00 72 1009.7
20260504215617 81 90 13.0 21.0 0.00 0.00 0.00 72 1009.9
20260504215111 81 90 12.0 21.0 0.00 0.00 0.00 72 1009.9
20260504214604 81 139 12.0 20.0 0.00 0.00 0.00 72 1009.9
20260504214335 81 90 13.0 21.0 0.00 0.00 0.00 72 1010.3
20260504213605 81 141 12.0 21.0 0.00 0.00 0.00 72 1010.3
20260504213107 80 141 11.0 18.0 0.00 0.00 0.00 72 1010.3
20260504212605 80 90 11.0 22.0 0.00 0.00 0.00 72 1010.5
20260504212341 80 157 12.0 22.0 0.00 0.00 0.00 72 1010.5
20260504211833 80 153 13.0 22.0 0.00 0.00 0.00 72 1010.5
20260504211048 80 90 12.0 22.0 0.00 0.00 0.00 72 1010.8
20260504210532 80 90 13.0 19.0 0.00 0.00 0.00 72 1010.8
20260504210020 80 145 12.0 19.0 0.00 0.00 0.00 72 1010.8
20260504205509 80 166 11.0 23.0 0.00 0.00 0.00 72 1010.8
20260504205221 80 146 11.0 23.0 0.00 0.00 0.00 72 1010.8
20260504204452 80 151 12.0 23.0 0.00 0.00 0.00 72 1011.2
20260504203941 80 137 12.0 23.0 0.00 0.00 0.00 72 1011.2
20260504203657 80 90 12.0 21.0 0.00 0.00 0.00 72 1011.2
20260504202919 80 168 11.0 21.0 0.00 0.00 0.00 71 1011.3
20260504202409 80 136 12.0 21.0 0.00 0.00 0.00 71 1011.3
20260504202131 80 90 12.0 21.0 0.00 0.00 0.00 71 1011.3
20260504201354 80 90 11.0 18.0 0.00 0.00 0.00 71 1011.3
20260504200841 80 142 10.0 18.0 0.00 0.00 0.00 71 1011.3
20260504200344 81 195 11.0 21.0 0.00 0.00 0.00 71 1011.3
20260504195839 81 153 12.0 21.0 0.00 0.00 0.00 71 1011.4
20260504195338 81 156 11.0 22.0 0.00 0.00 0.00 71 1011.4
20260504194840 81 153 13.0 22.0 0.00 0.00 0.00 72 1011.4
20260504194338 80 168 13.0 22.0 0.00 0.00 0.00 71 1011.8
20260504193839 80 132 12.0 22.0 0.00 0.00 0.00 71 1011.8
20260504193340 81 137 10.0 18.0 0.00 0.00 0.00 71 1011.8
20260504192838 81 146 10.0 21.0 0.00 0.00 0.00 71 1011.9
20260504192339 81 107 13.0 21.0 0.00 0.00 0.00 71 1011.9
20260504191839 81 159 12.0 19.0 0.00 0.00 0.00 71 1011.9
20260504191337 81 90 10.0 18.0 0.00 0.00 0.00 72 1011.9
20260504190827 80 145 10.0 18.0 0.00 0.00 0.00 72 1011.9
20260504190322 80 90 10.0 19.0 0.00 0.00 0.00 72 1011.9
20260504185817 80 136 11.0 19.0 0.00 0.00 0.00 72 1012.0
20260504185316 80 153 12.0 20.0 0.00 0.00 0.00 71 1012.0
20260504184818 80 127 11.0 20.0 0.00 0.00 0.00 72 1012.0
20260504184316 80 165 9.0 17.0 0.00 0.00 0.00 72 1012.2
20260504183816 80 160 10.0 17.0 0.00 0.00 0.00 71 1012.2
20260504183317 81 163 11.0 21.0 0.00 0.00 0.00 71 1012.2
20260504182816 80 90 11.0 21.0 0.00 0.00 0.00 71 1012.0
20260504182316 81 170 11.0 21.0 0.00 0.00 0.00 71 1012.0
20260504181316 82 129 10.0 17.0 0.00 0.00 0.00 71 1012.4
20260504181030 82 90 10.0 18.0 0.00 0.00 0.00 71 1012.4
20260504180537 82 172 10.0 18.0 0.00 0.00 0.00 71 1012.4
20260504175802 82 162 11.0 18.0 0.00 0.00 0.00 72 1012.5
20260504175513 82 126 12.0 24.0 0.00 0.00 0.00 72 1012.5
20260504174739 82 90 13.0 24.0 0.00 0.00 0.00 72 1012.5
20260504174231 82 178 12.0 24.0 0.00 0.00 0.00 72 1012.7
20260504173731 82 90 9.0 21.0 0.00 0.00 0.00 72 1012.7
20260504173225 81 192 8.0 21.0 0.00 0.00 0.00 72 1012.7
20260504172729 81 209 8.0 21.0 0.00 0.00 0.00 72 1013.0
20260504172450 81 199 8.0 18.0 0.00 0.00 0.00 72 1013.0
20260504171727 81 168 7.0 14.0 0.00 0.00 0.00 73 1013.0
20260504171448 81 187 8.0 14.0 0.00 0.00 0.00 73 1013.0
20260504170726 81 90 8.0 6.0 0.00 0.00 0.00 74 1013.0
20260504160304 78 205 7.0 19.0 0.00 0.00 0.00 76 1013.7
20260504150703 77 171 13.0 21.0 0.00 0.00 0.00 81 1013.6
20260504150203 76 164 13.0 22.0 0.00 0.00 0.00 81 1013.6
20260504141144 72 174 6.0 13.0 0.00 0.00 0.00 85 1013.9
20260504140124 70 151 5.0 14.0 0.00 0.00 0.00 85 1013.9
20260504130803 64 126 3.0 5.0 0.00 0.00 0.00 84 1013.5
20260504110454 60 116 4.0 6.0 0.00 0.00 0.00 82 1013.2
20260504100341 60 105 5.0 6.0 0.00 0.00 0.00 81 1013.7
20260504081751 60 95 5.0 7.0 0.00 0.00 0.00 78 1014.2
20260504081234 61 105 5.0 7.0 0.00 0.00 0.00 78 1014.5
20260504080719 61 104 4.0 6.0 0.00 0.00 0.00 78 1014.5
20260504080212 61 105 5.0 7.0 0.00 0.00 0.00 78 1014.5
20260504070202 61 119 4.0 5.0 0.00 0.00 0.00 76 1015.6
20260504050531 62 118 4.0 6.0 0.00 0.00 0.00 72 1016.7
20260504050020 62 117 4.0 5.0 0.00 0.00 0.00 72 1016.7
20260504045509 62 122 4.0 5.0 0.00 0.00 0.00 71 1017.1
20260504045004 62 124 4.0 5.0 0.00 0.00 0.00 71 1017.1
20260504044452 63 123 4.0 6.0 0.00 0.00 0.00 71 1017.0
20260504044207 63 119 4.0 7.0 0.00 0.00 0.00 71 1017.0
20260504043436 63 134 4.0 7.0 0.00 0.00 0.00 71 1017.0
20260504042925 63 130 4.0 6.0 0.00 0.00 0.00 70 1017.0
20260504042420 63 130 4.0 6.0 0.00 0.00 0.00 70 1017.0
20260504041909 63 126 4.0 5.0 0.00 0.00 0.00 70 1017.0
20260504041359 63 133 4.0 6.0 0.00 0.00 0.00 70 1017.0
20260504040849 64 116 4.0 6.0 0.00 0.00 0.00 69 1017.0
20260504040344 64 122 4.0 6.0 0.00 0.00 0.00 69 1017.0
20260504040055 64 120 4.0 5.0 0.00 0.00 0.00 69 1017.0
20260504035324 64 117 4.0 5.0 0.00 0.00 0.00 69 1017.0
20260504034813 64 122 4.0 5.0 0.00 0.00 0.00 68 1017.0
20260504034303 64 124 4.0 5.0 0.00 0.00 0.00 68 1017.1
20260504033750 64 125 3.0 5.0 0.00 0.00 0.00 68 1017.1
20260504033240 64 126 3.0 5.0 0.00 0.00 0.00 68 1017.1
20260504032730 64 123 3.0 5.0 0.00 0.00 0.00 68 1017.0
20260504032230 64 126 3.0 5.0 0.00 0.00 0.00 67 1017.0
20260504031727 65 122 4.0 5.0 0.00 0.00 0.00 67 1017.0
20260504031226 65 130 3.0 5.0 0.00 0.00 0.00 67 1016.9
20260504030729 65 141 3.0 5.0 0.00 0.00 0.00 66 1016.9
20260504030223 65 139 3.0 6.0 0.00 0.00 0.00 66 1016.9
20260504025720 65 131 3.0 6.0 0.00 0.00 0.00 66 1016.6
20260504025218 65 130 4.0 6.0 0.00 0.00 0.00 66 1016.6
20260504024714 65 138 4.0 6.0 0.00 0.00 0.00 66 1016.6
20260504024442 66 125 4.0 7.0 0.00 0.00 0.00 65 1016.6
20260504023715 66 132 4.0 7.0 0.00 0.00 0.00 65 1016.6
20260504023219 66 133 5.0 8.0 0.00 0.00 0.00 65 1016.6
20260504022711 66 90 5.0 8.0 0.00 0.00 0.00 64 1016.5
20260504022212 66 132 5.0 7.0 0.00 0.00 0.00 64 1016.5
20260504021704 66 128 4.0 7.0 0.00 0.00 0.00 64 1016.5
20260504021147 67 137 4.0 7.0 0.00 0.00 0.00 64 1016.5
20260504020148 67 134 4.0 7.0 0.00 0.00 0.00 63 1016.5
20260504015645 67 147 4.0 7.0 0.00 0.00 0.00 63 1016.6
20260504015144 67 120 4.0 7.0 0.00 0.00 0.00 62 1016.6
20260504014641 68 143 4.0 7.0 0.00 0.00 0.00 62 1016.6
20260504014145 68 145 4.0 7.0 0.00 0.00 0.00 61 1016.5
20260504013643 68 125 4.0 7.0 0.00 0.00 0.00 61 1016.5
20260504013131 69 141 4.0 6.0 0.00 0.00 0.00 61 1016.5
20260504012621 69 145 4.0 7.0 0.00 0.00 0.00 61 1016.5
20260504012113 70 139 4.0 7.0 0.00 0.00 0.00 61 1016.5
20260504011607 70 138 4.0 10.0 0.00 0.00 0.00 60 1016.5